Eagle River, WI

11:03 PM CST on February 06, 2016 (GMT -0600)
Eagle River Union

Weather History for KEGV - September, 2015

Change the Weather History Date:

Tuesday, September 1, 2015

  Actual Average Record
Temperature  
Mean Temperature 74 °F -  
Max Temperature 81 °F 74 °F 84 °F (2008)
Min Temperature 65 °F 49 °F 33 °F (2001)
Cooling Degree Days 8    
Growing Degree Days 24 (Base 50)    
Moisture  
Dew Point 66 °F    
Average Humidity 84    
Maximum Humidity 100    
Minimum Humidity 55    
Precipitation  
Precipitation 0.00 in - - ()
Sea Level Pressure  
Sea Level Pressure 29.98 in    
Wind  
Wind Speed 4 mph (SW)    
Max Wind Speed 13 mph    
Max Gust Speed 18 mph    
Visibility 6 miles    
Events      
Averages and records for this station are not official NWS values.
T = Trace of Precipitation, MM = Missing Value Source: NWS Daily Summary

Daily Weather History Graph

Daily Weather History Graph

Search for Another Location

Airport or City:

Trip Planner

Search our weather history database for the weather conditions in past years. The results will help you decide how hot, cold, wet, or windy it might be!

Date:

Astronomy

Sep. 01, 2015 Rise Set
Actual Time 6:17 AM CDT 7:35 PM CDT
Civil Twilight 5:46 AM CDT 8:06 PM CDT
Nautical Twilight 5:09 AM CDT 8:43 PM CDT
Astronomical Twilight 4:29 AM CDT 9:23 PM CDT
Moon 9:19 PM CDT (9/1) 9:49 AM CDT (9/1)
Length of Visible Light 14h 19m
Length of Day
13h 18m
Waning Gibbous, 88% of the Moon is Illuminated
Sep 1
Waning Gibbous
Sep 5
Last Quarter
Sep 13
New
Sep 21
First Quarter
Sep 27
Full

Hourly Weather History & Observations

Time (CDT) Temp. Heat Index Dew Point Humidity Pressure Visibility Wind Dir Wind Speed Gust Speed Precip Events Conditions
12:15 AM 66.7 °F - 66.4 °F 99% 29.99 in 5.0 mi SSW 3.5 mph - N/A   Clear
12:35 AM 67.1 °F - 66.6 °F 98% 29.99 in 7.0 mi SSW 4.6 mph - N/A   Clear
12:55 AM 67.1 °F - 66.6 °F 98% 29.99 in 7.0 mi SW 6.9 mph - N/A   Clear
1:15 AM 67.1 °F - 66.6 °F 98% 29.99 in 5.0 mi SW 5.8 mph - N/A   Clear
1:35 AM 66.6 °F - 66.2 °F 99% 29.99 in 5.0 mi Calm Calm - N/A   Clear
1:55 AM 66.6 °F - 66.4 °F 99% 29.99 in 5.0 mi SSW 3.5 mph - N/A   Clear
2:15 AM 66.4 °F - 66.4 °F 100% 29.99 in 4.0 mi SSW 3.5 mph - N/A   Clear
2:35 AM 66.7 °F - 66.6 °F 99% 29.98 in 4.0 mi SW 4.6 mph - N/A   Scattered Clouds
2:55 AM 67.1 °F - 66.9 °F 99% 29.99 in 5.0 mi SW 5.8 mph - N/A   Scattered Clouds
3:15 AM 67.1 °F - 67.1 °F 100% 29.99 in 4.0 mi SW 4.6 mph - N/A   Mostly Cloudy
3:35 AM 67.1 °F - 67.1 °F 100% 29.99 in 4.0 mi SSW 3.5 mph - N/A   Scattered Clouds
3:55 AM 67.1 °F - 67.1 °F 100% 29.99 in 4.0 mi SSW 3.5 mph - N/A   Clear
4:15 AM 67.1 °F - 67.1 °F 100% 29.99 in 3.0 mi Calm Calm - N/A   Clear
4:35 AM 67.1 °F - 67.1 °F 100% 29.99 in 3.0 mi Calm Calm - N/A   Clear
4:55 AM 67.1 °F - 67.1 °F 100% 29.99 in 2.5 mi Calm Calm - N/A   Clear
5:15 AM 67.1 °F - 67.1 °F 100% 29.99 in 2.5 mi Calm Calm - N/A   Scattered Clouds
5:35 AM 67.3 °F - 67.3 °F 100% 29.99 in 2.5 mi Calm Calm - N/A   Scattered Clouds
5:55 AM 67.6 °F - 67.6 °F 100% 29.99 in 3.0 mi Calm Calm - N/A   Mostly Cloudy
6:15 AM 68.0 °F - 68.0 °F 100% 30.00 in 2.0 mi Calm Calm - N/A   Overcast
6:35 AM 68.4 °F - 68.4 °F 100% 30.00 in 2.0 mi SW 3.5 mph - N/A   Overcast
6:55 AM 68.5 °F - 68.5 °F 100% 30.00 in 2.0 mi Calm Calm - N/A   Overcast
7:15 AM 68.9 °F - 68.9 °F 100% 30.00 in 2.0 mi SSW 3.5 mph - N/A   Overcast
7:35 AM 68.9 °F - 68.9 °F 100% 30.00 in 1.8 mi Calm Calm - N/A   Overcast
7:55 AM 69.1 °F - 69.1 °F 100% 30.00 in 1.5 mi SSW 4.6 mph - N/A   Overcast
8:15 AM 69.1 °F - 69.1 °F 100% 30.00 in 2.0 mi SW 5.8 mph - N/A   Overcast
8:35 AM 69.6 °F - 69.1 °F 98% 29.99 in 2.5 mi SW 4.6 mph - N/A   Overcast
8:55 AM 70.3 °F - 69.1 °F 96% 29.99 in 4.0 mi SW 3.5 mph - N/A   Overcast
9:15 AM 71.4 °F - 69.3 °F 93% 29.99 in 5.0 mi SW 3.5 mph - N/A   Overcast
9:35 AM 72.5 °F - 68.9 °F 88% 29.99 in 5.0 mi SSW 4.6 mph - N/A   Mostly Cloudy
9:55 AM 73.8 °F - 68.2 °F 83% 29.99 in 7.0 mi SSW 4.6 mph - N/A   Scattered Clouds
10:15 AM 74.8 °F - 67.5 °F 78% 29.99 in 10.0 mi SW 3.5 mph - N/A   Scattered Clouds
10:35 AM 76.6 °F - 67.3 °F 73% 29.98 in 10.0 mi SSW 4.6 mph - N/A   Clear
10:55 AM 77.9 °F - 66.0 °F 67% 29.98 in 10.0 mi SW 8.1 mph - N/A   Clear
11:15 AM 77.9 °F - 65.5 °F 65% 29.98 in 10.0 mi SW 5.8 mph - N/A   Scattered Clouds
11:35 AM 79.0 °F - 65.3 °F 63% 29.97 in 10.0 mi SW 9.2 mph - N/A   Scattered Clouds
11:55 AM 79.5 °F - 65.3 °F 62% 29.97 in 10.0 mi SSW 9.2 mph 17.3 mph N/A   Scattered Clouds
12:15 PM 80.2 °F 82.1 °F 65.3 °F 60% 29.96 in 10.0 mi SSW 8.1 mph - N/A   Mostly Cloudy
12:35 PM 80.2 °F 82.0 °F 64.8 °F 59% 29.96 in 10.0 mi SW 10.4 mph 17.3 mph N/A   Mostly Cloudy
12:55 PM 79.7 °F - 64.6 °F 60% 29.96 in 10.0 mi SW 12.7 mph - N/A   Mostly Cloudy
1:15 PM 79.5 °F - 65.8 °F 63% 29.96 in 10.0 mi WSW 11.5 mph - N/A   Mostly Cloudy
1:35 PM 79.5 °F - 64.6 °F 60% 29.96 in 10.0 mi WSW 12.7 mph 17.3 mph N/A   Mostly Cloudy
1:55 PM 80.8 °F 82.5 °F 64.6 °F 58% 29.96 in 10.0 mi WSW 11.5 mph 16.1 mph N/A   Scattered Clouds
2:15 PM 81.1 °F 82.5 °F 63.7 °F 55% 29.96 in 10.0 mi SW 11.5 mph 18.4 mph N/A   Scattered Clouds
2:35 PM 80.6 °F 82.2 °F 63.9 °F 57% 29.96 in 10.0 mi WSW 12.7 mph - N/A   Scattered Clouds
2:55 PM 80.1 °F 81.6 °F 63.7 °F 57% 29.96 in 10.0 mi WSW 8.1 mph - N/A   Scattered Clouds
3:15 PM 80.6 °F 82.2 °F 63.9 °F 57% 29.96 in 10.0 mi SW 8.1 mph - N/A   Scattered Clouds
3:35 PM 79.7 °F - 63.9 °F 58% 29.96 in 10.0 mi West 9.2 mph - N/A   Scattered Clouds
3:55 PM 79.7 °F - 64.4 °F 59% 29.96 in 10.0 mi West 6.9 mph - N/A   Clear
4:15 PM 79.9 °F - 64.2 °F 59% 29.96 in 10.0 mi WSW 6.9 mph - N/A   Clear
4:35 PM 79.3 °F - 63.9 °F 59% 29.95 in 10.0 mi West 5.8 mph - N/A   Clear
4:55 PM 79.9 °F - 63.9 °F 58% 29.96 in 10.0 mi West 6.9 mph - N/A   Clear
5:15 PM 79.9 °F - 63.5 °F 57% 29.96 in 10.0 mi West 6.9 mph - N/A   Scattered Clouds
5:35 PM 80.4 °F 82.0 °F 63.9 °F 57% 29.95 in 10.0 mi West 5.8 mph - N/A   Scattered Clouds
5:55 PM 79.2 °F - 63.7 °F 59% 29.96 in 10.0 mi WSW 5.8 mph - N/A   Clear
6:15 PM 78.6 °F - 64.4 °F 62% 29.96 in 10.0 mi WSW 5.8 mph - N/A   Clear
6:35 PM 76.3 °F - 65.5 °F 69% 29.96 in 10.0 mi WSW 3.5 mph - N/A   Clear
6:55 PM 75.6 °F - 65.5 °F 71% 29.96 in 10.0 mi Calm Calm - N/A   Clear
7:15 PM 74.3 °F - 66.6 °F 77% 29.97 in 10.0 mi Calm Calm - N/A   Clear
7:35 PM 72.1 °F - 67.1 °F 84% 29.97 in 10.0 mi Calm Calm - N/A   Clear
7:55 PM 71.1 °F - 68.9 °F 93% 29.97 in 10.0 mi Calm Calm - N/A   Clear
8:15 PM 69.4 °F - 68.4 °F 96% 29.98 in 7.0 mi Calm Calm - N/A   Clear
8:35 PM 68.9 °F - 68.2 °F 98% 29.99 in 7.0 mi Calm Calm - N/A   Clear
8:55 PM 68.5 °F - 68.5 °F 100% 29.99 in 5.0 mi Calm Calm - N/A   Clear
9:15 PM 66.9 °F - 66.9 °F 100% 29.99 in 3.0 mi Calm Calm - N/A   Clear
9:35 PM 67.6 °F - 67.5 °F 99% 29.99 in 2.0 mi Calm Calm - N/A   Clear
9:55 PM 67.5 °F - 67.5 °F 100% 30.00 in 2.0 mi Calm Calm - N/A   Clear
10:15 PM 66.6 °F - 66.6 °F 100% 30.00 in 0.8 mi Calm Calm - N/A   Mostly Cloudy
10:35 PM 67.3 °F - 67.3 °F 100% 30.00 in 1.2 mi Calm Calm - N/A   Scattered Clouds
10:55 PM 66.6 °F - 66.6 °F 100% 30.00 in 5.0 mi Calm Calm - N/A   Clear
11:15 PM 67.3 °F - 67.3 °F 100% 30.00 in 4.0 mi Calm Calm - N/A   Clear
11:35 PM 66.4 °F - 66.4 °F 100% 30.00 in 1.5 mi Calm Calm - N/A   Mist
11:55 PM 65.1 °F - 65.1 °F 100% 30.00 in 2.5 mi Calm Calm - N/A   Scattered Clouds